EW3241 Weather Reports


time (UTC)temp
F
wind
direction
speed
knots
gust
knots
rain 1hr
in
rain 24hr
in
rain mn
in
humidity
%
barometer
mb
20260507130827 52 306 0.0 0.0 0.00 0.00 0.00 90 1017.5
20260507130318 52 306 0.0 0.0 0.00 0.00 0.00 90 1017.3
20260507125829 52 306 0.0 0.0 0.00 0.00 0.00 90 1017.2
20260507125321 52 306 0.0 0.0 0.00 0.00 0.00 90 1017.2
20260507124827 52 306 0.0 0.0 0.00 0.00 0.00 90 1017.0
20260507124323 52 306 0.0 0.0 0.00 0.00 0.00 90 1017.0
20260507123817 52 306 0.0 0.0 0.00 0.00 0.00 90 1017.0
20260507123327 52 306 0.0 0.0 0.00 0.00 0.00 90 1016.9
20260507122819 52 306 0.0 0.0 0.00 0.00 0.00 90 1017.0
20260507122327 52 306 0.0 0.0 0.00 0.00 0.00 90 1017.0
20260507121838 52 306 0.0 0.0 0.00 0.00 0.00 90 1017.0
20260507121328 52 306 0.0 0.0 0.00 0.00 0.00 89 1016.9
20260507120818 52 306 0.0 0.0 0.00 0.00 0.00 90 1016.9
20260507120328 52 306 0.0 0.0 0.00 0.00 0.00 90 1017.0
20260507115819 52 306 0.0 0.0 0.00 0.00 0.00 89 1017.0
20260507115316 52 306 0.0 0.0 0.00 0.00 0.00 89 1017.0
20260507114817 52 306 0.0 0.9 0.00 0.00 0.00 89 1017.1
20260507114326 52 306 0.0 0.9 0.00 0.00 0.00 89 1017.0
20260507113818 52 306 0.0 0.0 0.00 0.00 0.00 89 1017.0
20260507113349 52 306 0.0 0.0 0.00 0.00 0.00 89 1017.0
20260507112817 52 306 0.0 0.0 0.00 0.00 0.00 89 1017.0
20260507112349 52 306 0.0 0.9 0.00 0.00 0.00 89 1017.0
20260507111819 52 306 0.0 0.9 0.00 0.00 0.00 89 1017.1
20260507111326 52 306 0.0 0.0 0.00 0.00 0.00 89 1017.1
20260507110838 52 306 0.0 0.0 0.00 0.00 0.00 89 1017.0
20260507110329 52 306 0.0 0.0 0.00 0.00 0.00 89 1017.0
20260507105821 52 306 0.0 0.0 0.00 0.00 0.00 89 1017.0
20260507105332 52 306 0.0 0.0 0.00 0.00 0.00 89 1017.1
20260507104833 52 306 0.0 0.0 0.00 0.00 0.00 89 1017.1
20260507104322 52 306 0.0 0.9 0.00 0.00 0.00 89 1017.1
20260507103833 53 306 0.0 0.9 0.00 0.00 0.00 89 1017.2
20260507103324 53 173 0.0 0.0 0.00 0.00 0.00 89 1017.2
20260507102815 53 173 0.0 0.0 0.00 0.00 0.00 88 1017.2
20260507102326 53 173 0.0 0.0 0.00 0.00 0.00 88 1017.3
20260507101816 53 173 0.0 0.0 0.00 0.00 0.00 88 1017.3
20260507101327 53 173 0.0 0.0 0.00 0.00 0.00 89 1017.4
20260507100818 53 173 0.0 0.9 0.00 0.00 0.00 88 1017.3
20260507100350 53 173 0.0 0.9 0.00 0.00 0.00 88 1017.3
20260507095816 53 173 0.0 0.9 0.00 0.00 0.00 88 1017.5
20260507095326 53 173 0.0 0.9 0.00 0.00 0.00 88 1017.4
20260507094828 53 173 0.0 0.0 0.00 0.00 0.00 88 1017.4
20260507094320 53 173 0.0 0.0 0.00 0.00 0.00 88 1017.4
20260507093830 54 173 0.0 0.0 0.00 0.00 0.00 88 1017.5
20260507093325 54 173 0.0 0.0 0.00 0.00 0.00 88 1017.6
20260507092835 54 173 0.0 0.0 0.00 0.00 0.00 88 1017.6
20260507092329 54 173 0.0 0.0 0.00 0.00 0.00 88 1017.7
20260507091819 54 173 0.0 0.0 0.00 0.00 0.00 88 1017.6
20260507091328 54 173 0.0 0.9 0.00 0.00 0.00 88 1017.7
20260507090819 54 173 0.0 1.7 0.00 0.00 0.00 88 1017.8
20260507090333 54 173 0.9 1.7 0.00 0.00 0.00 88 1017.9
20260507085822 54 173 0.0 0.0 0.00 0.00 0.00 87 1017.8
20260507085316 54 173 0.0 0.0 0.00 0.00 0.00 87 1017.9
20260507084820 54 173 0.0 0.0 0.00 0.00 0.00 87 1018.0
20260507084327 54 173 0.0 0.0 0.00 0.00 0.00 87 1018.0
20260507083843 54 173 0.0 0.0 0.00 0.00 0.00 87 1018.1
20260507083313 54 173 0.0 0.9 0.00 0.00 0.00 87 1018.1
20260507082826 55 333 0.0 0.0 0.00 0.00 0.00 87 1018.2
20260507082320 55 340 0.0 0.0 0.00 0.00 0.00 87 1018.2
20260507081834 55 340 0.0 0.0 0.00 0.00 0.00 87 1018.3
20260507081321 55 340 0.0 0.0 0.00 0.00 0.00 87 1018.2
20260507080812 55 340 0.0 0.0 0.00 0.00 0.00 87 1018.3
20260507080327 55 340 0.0 0.0 0.00 0.00 0.00 86 1018.3
20260507075817 55 340 0.0 0.0 0.00 0.00 0.00 86 1018.2
20260507075316 55 340 0.0 0.0 0.00 0.00 0.00 86 1018.3
20260507074837 55 340 0.0 0.0 0.00 0.00 0.00 86 1018.3
20260507074323 55 340 0.0 0.0 0.00 0.00 0.00 86 1018.3
20260507073835 55 340 0.0 0.0 0.00 0.00 0.00 86 1018.3
20260507073346 56 340 0.0 0.0 0.00 0.00 0.00 86 1018.3
20260507072856 56 340 0.0 0.0 0.00 0.00 0.00 86 1018.3
20260507072327 56 340 0.0 0.0 0.00 0.00 0.00 86 1018.3
20260507071818 56 340 0.0 2.6 0.00 0.00 0.00 86 1018.2
20260507071326 56 340 0.9 2.6 0.00 0.00 0.00 86 1018.3
20260507070821 56 340 0.0 0.9 0.00 0.00 0.00 85 1018.3
20260507070319 56 340 0.0 0.9 0.00 0.00 0.00 85 1018.4
20260507065829 56 340 0.0 0.9 0.00 0.00 0.00 85 1018.5
20260507065319 56 340 0.0 0.9 0.00 0.00 0.00 85 1018.5
20260507064819 56 340 0.0 1.7 0.00 0.00 0.00 85 1018.6
20260507064351 56 340 0.0 1.7 0.00 0.00 0.00 85 1018.6
20260507063825 57 340 0.0 0.9 0.00 0.00 0.00 84 1018.6
20260507063320 57 340 0.0 0.9 0.00 0.00 0.00 84 1018.7
20260507062847 57 340 0.0 0.0 0.00 0.00 0.00 84 1018.6
20260507062316 57 340 0.0 0.0 0.00 0.00 0.00 84 1018.6
20260507061849 57 340 0.0 0.0 0.00 0.00 0.00 84 1018.6
20260507061314 57 340 0.0 0.0 0.00 0.00 0.00 84 1018.6
20260507060827 57 340 0.0 0.0 0.00 0.00 0.00 84 1018.6
20260507060325 58 340 0.0 0.0 0.00 0.00 0.00 83 1018.6
20260507055835 58 340 0.0 0.0 0.00 0.00 0.00 83 1018.6
20260507055326 58 340 0.0 0.0 0.00 0.00 0.00 83 1018.5
20260507054846 58 340 0.0 1.7 0.00 0.00 0.00 83 1018.5
20260507054353 58 340 0.0 1.7 0.00 0.00 0.00 83 1018.5
20260507053824 59 340 0.0 0.0 0.00 0.00 0.00 83 1018.5
20260507053314 59 338 0.0 0.0 0.00 0.00 0.00 83 1018.4
20260507052826 59 338 0.0 0.9 0.00 0.00 0.00 82 1018.4
20260507052339 59 338 0.0 0.9 0.00 0.00 0.00 82 1018.5
20260507051850 59 338 0.0 0.9 0.00 0.00 0.00 82 1018.5
20260507051317 59 338 0.0 0.9 0.00 0.00 0.00 82 1018.5
20260507050829 59 338 0.0 0.9 0.00 0.00 0.00 81 1018.5
20260507050343 60 338 0.0 0.0 0.00 0.00 0.00 81 1018.4
20260507045831 60 338 0.0 0.0 0.00 0.00 0.00 81 1018.5
20260507045325 60 338 0.0 0.0 0.00 0.00 0.00 81 1018.5
20260507044845 60 338 0.0 0.0 0.00 0.00 0.00 80 1018.5
20260507044332 60 338 0.0 0.0 0.00 0.00 0.00 80 1018.5
20260507043822 61 338 0.0 0.9 0.00 0.00 0.00 80 1018.5
20260507043334 61 338 0.0 0.9 0.00 0.00 0.00 79 1018.4
20260507042845 61 338 0.0 0.0 0.00 0.00 0.00 79 1018.4
20260507042318 61 338 0.0 1.7 0.00 0.00 0.00 79 1018.3
20260507041831 61 338 0.0 1.7 0.00 0.00 0.00 78 1018.3
20260507041341 61 338 0.9 1.7 0.00 0.00 0.00 78 1018.3
20260507040834 61 338 0.0 1.7 0.00 0.00 0.00 78 1018.2
20260507040326 61 338 0.0 2.6 0.00 0.00 0.00 77 1018.2
20260507035842 62 338 0.9 2.6 0.00 0.00 0.00 77 1018.2
20260507035333 62 338 1.7 2.6 0.00 0.00 0.00 77 1018.1
20260507034813 62 338 0.0 1.7 0.00 0.00 0.00 76 1018.0
20260507034325 62 338 0.0 1.7 0.00 0.00 0.00 76 1017.9
20260507033816 62 338 0.0 1.7 0.00 0.00 0.00 75 1018.0
20260507033327 62 338 0.0 1.7 0.00 0.00 0.00 75 1017.9
20260507032837 63 338 0.0 1.7 0.00 0.00 0.00 74 1017.8
20260507032347 63 338 0.9 1.7 0.00 0.00 0.00 74 1017.8
20260507031836 63 338 0.9 2.6 0.00 0.00 0.00 74 1017.8
20260507031344 63 338 0.9 2.6 0.00 0.00 0.00 73 1017.8
20260507030834 63 339 1.7 2.6 0.00 0.00 0.00 73 1017.7
20260507030327 63 342 1.7 3.5 0.00 0.00 0.00 73 1017.7
20260507025815 64 348 0.9 4.3 0.00 0.00 0.00 72 1017.7
20260507025326 64 329 1.7 4.3 0.00 0.00 0.00 72 1017.6
20260507024815 64 309 0.0 4.3 0.00 0.00 0.00 71 1017.6
20260507024344 64 299 2.6 4.3 0.00 0.00 0.00 71 1017.5
20260507023833 64 346 0.9 5.2 0.00 0.00 0.00 70 1017.5
20260507023325 65 319 1.7 5.2 0.00 0.00 0.00 70 1017.4
20260507022834 65 321 0.9 3.5 0.00 0.00 0.00 70 1017.4
20260507022326 65 355 1.7 3.5 0.00 0.00 0.00 69 1017.3
20260507021817 65 342 0.9 3.5 0.00 0.00 0.00 69 1017.3
20260507021325 66 343 1.7 7.8 0.00 0.00 0.00 69 1017.3
20260507020817 66 360 4.3 7.8 0.00 0.00 0.00 68 1017.3
20260507020315 66 26 0.9 5.2 0.00 0.00 0.00 68 1017.2
20260507015822 66 313 1.7 6.1 0.00 0.00 0.00 68 1017.2
20260507015332 67 355 1.7 6.1 0.00 0.00 0.00 67 1017.2
20260507014833 67 360 1.7 5.2 0.00 0.00 0.00 67 1017.1
20260507014341 67 355 1.7 4.3 0.00 0.00 0.00 67 1017.2
20260507013832 67 300 1.7 6.1 0.00 0.00 0.00 66 1017.1
20260507013324 68 302 1.7 6.1 0.00 0.00 0.00 66 1017.1
20260507012815 68 211 1.7 5.2 0.00 0.00 0.00 66 1017.1
20260507012327 68 267 0.9 8.7 0.00 0.00 0.00 66 1017.1
20260507011818 68 242 3.5 8.7 0.00 0.00 0.00 66 1017.0
20260507011326 68 244 3.5 7.8 0.00 0.00 0.00 65 1017.0
20260507010822 68 222 3.5 7.0 0.00 0.00 0.00 64 1017.0
20260507010337 69 259 5.2 7.8 0.00 0.00 0.00 63 1017.0
20260507005845 69 313 3.5 8.7 0.00 0.00 0.00 63 1017.0
20260507005316 70 263 4.3 9.6 0.00 0.00 0.00 62 1016.9
20260507004836 70 261 5.2 9.6 0.00 0.00 0.00 61 1016.9
20260507004327 71 229 4.3 7.0 0.00 0.00 0.00 60 1017.0
20260507003821 71 265 3.5 7.0 0.00 0.00 0.00 59 1016.9
20260507003353 71 287 4.3 7.0 0.00 0.00 0.00 58 1016.9
20260507002821 72 256 4.3 8.7 0.00 0.00 0.00 59 1016.9
20260507002333 72 238 2.6 8.7 0.00 0.00 0.00 59 1016.8
20260507001824 72 277 4.3 8.7 0.00 0.00 0.00 59 1016.9
20260507001315 72 265 3.5 9.6 0.00 0.00 0.00 58 1016.8
20260507000827 72 251 5.2 9.6 0.00 0.00 0.00 57 1016.8
20260507000321 73 262 5.2 7.8 0.00 0.00 0.00 58 1016.8
20260506235833 73 307 4.3 8.7 0.00 0.00 0.00 57 1016.7
20260506235324 73 216 3.5 8.7 0.00 0.00 0.00 58 1016.6
20260506234825 73 15 2.6 8.7 0.00 0.00 0.00 59 1016.6
20260506234333 73 278 5.2 7.8 0.00 0.00 0.00 59 1016.6
20260506233825 73 240 3.5 10.4 0.00 0.00 0.00 58 1016.5
20260506233317 73 224 3.5 9.6 0.00 0.00 0.00 58 1016.5
20260506232829 73 251 5.2 9.6 0.00 0.00 0.00 59 1016.5
20260506232324 73 226 4.3 9.6 0.00 0.00 0.00 59 1016.6
20260506231816 73 302 4.3 8.7 0.00 0.00 0.00 59 1016.6
20260506231326 73 254 1.7 10.4 0.00 0.00 0.00 58 1016.7
20260506230815 73 292 2.6 10.4 0.00 0.00 0.00 58 1016.7
20260506230328 74 220 4.3 12.2 0.00 0.00 0.00 58 1016.7
20260506225820 73 294 2.6 12.2 0.00 0.00 0.00 59 1016.8
20260506225352 74 275 4.3 10.4 0.00 0.00 0.00 59 1016.8
20260506224831 74 261 2.6 10.4 0.00 0.00 0.00 58 1016.7
20260506224321 74 257 5.2 11.3 0.00 0.00 0.00 58 1016.8
20260506223816 74 223 5.2 11.3 0.00 0.00 0.00 58 1016.8
20260506223348 74 261 4.3 12.2 0.00 0.00 0.00 58 1016.8
20260506222817 74 254 7.8 12.2 0.00 0.00 0.00 57 1016.9
20260506222328 74 249 6.1 13.0 0.00 0.00 0.00 57 1016.8
20260506221819 75 237 5.2 11.3 0.00 0.00 0.00 56 1016.9
20260506221330 75 245 3.5 12.2 0.00 0.00 0.00 56 1017.0
20260506220821 75 15 2.6 12.2 0.00 0.00 0.00 56 1017.0
20260506220333 75 243 6.1 10.4 0.00 0.00 0.00 56 1017.0
20260506215822 75 355 7.0 10.4 0.00 0.00 0.00 55 1017.1
20260506215337 75 261 4.3 10.4 0.00 0.00 0.00 56 1017.1
20260506214816 75 275 7.0 11.3 0.00 0.00 0.00 56 1017.1
20260506214326 75 277 3.5 8.7 0.00 0.00 0.00 55 1017.1
20260506213818 75 327 4.3 12.2 0.00 0.00 0.00 55 1017.2
20260506213350 75 251 5.2 12.2 0.00 0.00 0.00 55 1017.2
20260506212819 75 300 5.2 10.4 0.00 0.00 0.00 56 1017.3
20260506212334 75 275 3.5 10.4 0.00 0.00 0.00 56 1017.3
20260506211825 75 257 6.1 11.3 0.00 0.00 0.00 56 1017.2
20260506211313 75 311 3.5 11.3 0.00 0.00 0.00 56 1017.2
20260506210828 75 236 5.2 12.2 0.00 0.00 0.00 57 1017.3
20260506210322 75 201 6.1 12.2 0.00 0.00 0.00 55 1017.3
20260506205849 76 355 7.0 11.3 0.00 0.00 0.00 55 1017.4
20260506205343 76 210 4.3 11.3 0.00 0.00 0.00 55 1017.4
20260506204825 76 240 3.5 9.6 0.00 0.00 0.00 55 1017.4
20260506204316 76 274 4.3 9.6 0.00 0.00 0.00 55 1017.4
20260506203827 76 5 6.1 11.3 0.00 0.00 0.00 54 1017.4
20260506203339 76 355 7.0 11.3 0.00 0.00 0.00 55 1017.5
20260506202850 76 355 3.5 8.7 0.00 0.00 0.00 54 1017.5
20260506202339 76 345 3.5 10.4 0.00 0.00 0.00 55 1017.5
20260506201852 76 275 4.3 10.4 0.00 0.00 0.00 55 1017.5
20260506201318 76 254 2.6 8.7 0.00 0.00 0.00 55 1017.5
20260506200850 76 349 2.6 8.7 0.00 0.00 0.00 54 1017.5
20260506200321 76 331 4.3 8.7 0.00 0.00 0.00 53 1017.6
20260506195834 76 360 6.1 8.7 0.00 0.00 0.00 53 1017.7
20260506195323 75 292 1.7 9.6 0.00 0.00 0.00 53 1017.7
20260506194826 75 355 7.0 9.6 0.00 0.00 0.00 52 1017.8
20260506194353 75 266 2.6 8.7 0.00 0.00 0.00 52 1017.9
20260506193845 76 344 5.2 8.7 0.00 0.00 0.00 52 1017.9
20260506193315 76 285 3.5 7.0 0.00 0.00 0.00 52 1018.0
20260506192827 75 333 4.3 8.7 0.00 0.00 0.00 52 1018.0
20260506192321 75 346 4.3 8.7 0.00 0.00 0.00 53 1018.1
20260506191831 75 254 5.2 8.7 0.00 0.00 0.00 54 1018.1
20260506191318 74 251 1.7 8.7 0.00 0.00 0.00 53 1018.2
20260506190830 74 275 3.5 7.0 0.00 0.00 0.00 54 1018.2
20260506190342 73 67 2.6 7.8 0.00 0.00 0.00 55 1018.2
20260506185827 73 5 5.2 7.8 0.00 0.00 0.00 55 1018.3
20260506185317 73 62 4.3 7.8 0.00 0.00 0.00 54 1018.4
20260506184817 73 327 3.5 7.8 0.00 0.00 0.00 55 1018.4
20260506184326 73 277 5.2 9.6 0.00 0.00 0.00 56 1018.5
20260506183818 72 290 2.6 9.6 0.00 0.00 0.00 55 1018.6
20260506183349 72 339 6.1 9.6 0.00 0.00 0.00 56 1018.6
20260506182822 72 98 1.7 7.0 0.00 0.00 0.00 54 1018.7
20260506182334 72 19 0.9 7.8 0.00 0.00 0.00 56 1018.8
20260506181826 72 290 4.3 7.8 0.00 0.00 0.00 56 1018.8
20260506181354 72 267 3.5 7.0 0.00 0.00 0.00 56 1018.8
20260506180824 72 81 1.7 7.8 0.00 0.00 0.00 56 1019.0
20260506180315 71 32 5.2 7.8 0.00 0.00 0.00 56 1019.0
20260506175827 71 355 5.2 7.0 0.00 0.00 0.00 55 1019.0
20260506175318 71 32 2.6 7.0 0.00 0.00 0.00 56 1018.9
20260506174821 70 297 4.3 7.0 0.00 0.00 0.00 56 1019.0
20260506174313 70 10 1.7 6.1 0.00 0.03 0.00 57 1019.2
20260506173828 71 355 2.6 7.8 0.00 0.03 0.00 55 1019.2
20260506173320 71 19 3.5 7.8 0.00 0.03 0.00 56 1019.3
20260506172829 70 347 1.7 5.2 0.00 0.03 0.00 56 1019.3
20260506172322 70 319 2.6 8.7 0.00 0.03 0.00 56 1019.4
20260506171832 69 37 2.6 8.7 0.00 0.03 0.00 56 1019.4
20260506171318 69 46 1.7 7.0 0.00 0.03 0.00 57 1019.4
20260506170831 68 113 3.5 7.0 0.00 0.03 0.00 60 1019.4
20260506170321 68 28 2.6 7.0 0.00 0.03 0.00 64 1019.4
20260506165832 67 315 3.5 6.1 0.00 0.03 0.00 64 1019.3
20260506165325 67 37 2.6 5.2 0.00 0.03 0.00 65 1019.4
20260506164829 67 338 3.5 5.2 0.00 0.03 0.00 65 1019.4
20260506164320 66 322 2.6 6.1 0.00 0.03 0.00 65 1019.3
20260506163834 66 279 2.6 6.1 0.00 0.03 0.00 66 1019.3
20260506163326 66 343 3.5 6.1 0.00 0.03 0.00 66 1019.4
20260506162835 66 296 1.7 6.1 0.00 0.03 0.00 66 1019.4
20260506162326 65 21 2.6 5.2 0.00 0.03 0.00 67 1019.4
20260506161817 65 11 2.6 6.1 0.00 0.03 0.00 68 1019.4
20260506161346 65 315 4.3 6.1 0.00 0.03 0.00 70 1019.4
20260506160817 64 84 0.9 6.1 0.00 0.03 0.00 71 1019.3
20260506160327 63 5 0.9 3.5 0.00 0.03 0.00 73 1019.4
20260506155818 63 308 0.9 4.3 0.00 0.03 0.00 73 1019.4
20260506155349 63 286 0.9 6.1 0.00 0.03 0.00 74 1019.4
20260506154848 63 264 3.5 6.1 0.00 0.03 0.00 75 1019.3
20260506154316 62 281 1.7 3.5 0.00 0.03 0.00 78 1019.4
20260506153827 61 55 1.7 3.5 0.00 0.03 0.00 80 1019.5
20260506153316 61 248 1.7 3.5 0.00 0.03 0.00 82 1019.4
20260506152823 60 288 2.6 3.5 0.00 0.03 0.00 85 1019.4
20260506152317 59 260 1.7 2.6 0.00 0.03 0.00 87 1019.5
20260506151848 58 254 1.7 2.6 0.00 0.03 0.00 87 1019.5
20260506151318 57 355 0.0 1.7 0.00 0.03 0.00 89 1019.5
20260506150833 57 355 0.0 0.0 0.00 0.03 0.00 89 1019.5
20260506150323 56 355 0.0 0.9 0.00 0.03 0.00 89 1019.6
20260506145816 56 355 0.0 1.7 0.00 0.03 0.00 90 1019.5
20260506145331 55 355 0.0 1.7 0.00 0.03 0.00 90 1019.6
20260506144831 54 355 0.9 1.7 0.00 0.03 0.00 90 1019.5
20260506144319 54 360 0.0 0.0 0.00 0.31 0.00 90 1019.5
20260506143830 53 360 0.0 0.0 0.00 0.31 0.00 90 1019.5
20260506143324 53 360 0.0 0.0 0.00 0.31 0.00 90 1019.5
20260506142855 53 360 0.0 0.0 0.00 0.31 0.00 91 1019.4
20260506142325 52 360 0.0 0.0 0.00 0.31 0.00 91 1019.4
20260506141819 51 360 0.0 0.0 0.00 0.31 0.00 90 1019.4
20260506141328 51 360 0.0 0.9 0.00 0.31 0.00 90 1019.4
20260506140824 51 360 0.0 0.9 0.00 0.31 0.00 90 1019.4
20260506140316 50 360 0.0 0.9 0.00 0.31 0.00 90 1019.4
20260506135829 50 348 0.0 1.7 0.00 0.31 0.00 90 1019.4
20260506135342 50 360 0.9 1.7 0.00 0.31 0.00 90 1019.3
20260506134821 50 360 0.0 1.7 0.00 0.31 0.00 90 1019.3
20260506134332 49 360 0.0 1.7 0.00 0.31 0.00 89 1019.3
20260506133824 49 360 0.9 1.7 0.00 0.31 0.00 89 1019.2
20260506133315 49 360 0.0 0.0 0.00 0.31 0.00 89 1019.2
20260506132827 48 360 0.0 0.0 0.00 0.31 0.00 89 1019.1
20260506132325 48 360 0.0 0.0 0.00 0.31 0.00 89 1019.1
20260506131816 48 360 0.0 0.0 0.00 0.31 0.00 89 1019.0
20260506131325 48 360 0.0 0.0 0.00 0.31 0.00 89 1019.0